FW1558 Weather Reports


Display with metric or nautical units.
time (UTC)temp
F
wind
direction
speed
MPH
gust
MPH
rain 1hr
in
rain 24hr
in
rain mn
in
humidity
%
barometer
mb
20260507104517 41 180 1.0 4.0 0.00 0.74 0.00 95 1007.3
20260507103014 41 235 0.0 2.0 0.00 0.74 0.00 95 1007.4
20260507101512 41 235 0.0 1.0 0.00 0.74 0.00 95 1007.2
20260507100018 41 235 0.0 1.0 0.00 0.74 0.00 95 1007.1
20260507094510 41 244 0.0 2.0 0.00 0.74 0.00 95 1007.1
20260507093011 41 249 0.0 2.0 0.00 0.74 0.00 95 1007.3
20260507091507 41 250 0.0 3.0 0.00 0.74 0.00 95 1007.3
20260507090007 41 181 0.0 0.0 0.00 0.74 0.00 95 1007.6
20260507084502 41 181 0.0 0.0 0.00 0.74 0.00 94 1007.2
20260507083002 42 181 0.0 3.0 0.00 0.74 0.00 95 1007.3
20260507081559 42 163 0.0 0.0 0.00 0.74 0.00 95 1007.6
20260507080103 42 163 0.0 0.0 0.00 0.74 0.00 95 1007.5
20260507074612 42 85 0.0 0.0 0.00 0.75 0.00 94 1007.5
20260507073059 42 84 0.0 2.0 0.00 0.75 0.00 94 1007.2
20260507071557 42 84 0.0 2.0 0.00 0.75 0.00 94 1007.2
20260507070114 42 84 0.0 2.0 0.00 0.75 0.00 94 1007.0
20260507064605 42 84 0.0 2.0 0.00 0.76 0.00 94 1007.1
20260507063059 42 84 0.0 0.0 0.00 0.76 0.00 94 1007.1
20260507061554 42 84 0.0 2.0 0.00 0.76 0.00 94 1007.2
20260507060057 42 84 0.0 2.0 0.00 0.76 0.00 94 1007.3
20260507054554 42 84 0.0 2.0 0.00 0.79 0.00 94 1007.3
20260507053050 42 71 0.0 3.0 0.00 0.79 0.00 94 1007.4
20260507051549 42 67 0.0 3.0 0.00 0.79 0.00 94 1007.4
20260507050047 42 62 0.0 2.0 0.00 0.79 0.00 94 1007.7
20260507044545 42 60 1.0 3.0 0.00 0.81 0.00 94 1007.5
20260507043043 43 53 0.0 1.0 0.00 0.81 0.00 94 1007.8
20260507041541 43 53 0.0 3.0 0.00 0.81 0.00 94 1007.7
20260507040037 44 52 0.0 2.0 0.00 0.81 0.00 94 1007.8
20260507034539 44 69 0.0 3.0 0.00 0.86 0.81 94 1007.6
20260507033035 44 62 1.0 3.0 0.00 0.86 0.81 94 1007.8
20260507031535 44 62 0.0 2.0 0.00 0.86 0.81 94 1007.9
20260507030034 44 62 0.0 2.0 0.01 0.86 0.81 94 1007.7
20260507024535 45 62 1.0 2.0 0.01 0.86 0.81 94 1008.0
20260507023034 45 61 0.0 1.0 0.01 0.86 0.81 93 1008.1
20260507021532 45 61 0.0 3.0 0.03 0.86 0.81 94 1008.1
20260507020040 45 61 1.0 2.0 0.02 0.85 0.80 93 1007.9
20260507014530 45 61 0.0 1.0 0.02 0.85 0.80 93 1007.9
20260507013045 45 61 0.0 1.0 0.03 0.85 0.80 93 1008.0
20260507011529 45 61 0.0 1.0 0.01 0.83 0.78 93 1008.0
20260507010035 45 61 0.0 3.0 0.02 0.83 0.78 93 1007.7
20260507004529 45 61 0.0 1.0 0.02 0.83 0.78 93 1007.4
20260507003026 45 61 1.0 3.0 0.02 0.82 0.77 93 1007.2
20260507001529 45 47 0.0 2.0 0.03 0.82 0.77 93 1007.2
20260507000025 45 47 1.0 4.0 0.02 0.81 0.76 93 1006.6
20260506234530 45 76 1.0 5.0 0.02 0.81 0.76 93 1006.2
20260506233022 45 43 2.0 7.0 0.01 0.80 0.75 92 1006.2
20260506231526 45 84 2.0 8.0 0.01 0.79 0.74 92 1006.4
20260506230021 45 55 3.0 5.0 0.01 0.79 0.74 92 1006.3
20260506224519 45 42 2.0 9.0 0.01 0.79 0.74 92 1006.1
20260506223015 46 79 3.0 5.0 0.01 0.79 0.74 92 1006.1
20260506221514 46 49 1.0 5.0 0.00 0.78 0.73 93 1005.9
20260506220022 46 40 2.0 4.0 0.00 0.78 0.73 93 1005.9
20260506214512 46 19 1.0 5.0 0.01 0.78 0.73 93 1005.7
20260506213012 46 38 2.0 5.0 0.01 0.78 0.73 93 1005.5
20260506211516 46 5 1.0 6.0 0.02 0.78 0.73 93 1005.6
20260506210012 46 360 2.0 5.0 0.03 0.78 0.73 93 1005.6
20260506204507 46 36 1.0 5.0 0.07 0.78 0.72 93 1005.3
20260506203005 47 34 1.0 4.0 0.07 0.78 0.72 93 1005.4
20260506201503 47 29 2.0 6.0 0.08 0.77 0.71 93 1005.4
20260506200004 47 40 1.0 4.0 0.07 0.80 0.69 93 1005.4
20260506194600 47 32 2.0 6.0 0.03 0.76 0.65 92 1005.3
20260506193059 47 25 3.0 6.0 0.03 0.76 0.65 92 1005.6
20260506191559 47 69 3.0 9.0 0.01 0.74 0.63 92 1005.6
20260506190059 47 15 2.0 7.0 0.01 0.73 0.62 93 1005.4
20260506184612 47 46 2.0 7.0 0.02 0.73 0.62 93 1005.4
20260506183056 47 55 2.0 8.0 0.08 0.73 0.62 93 1005.6
20260506181555 47 29 3.0 9.0 0.12 0.73 0.62 93 1005.6
20260506180055 47 22 4.0 9.0 0.12 0.72 0.61 92 1005.8
20260506174550 47 30 3.0 5.0 0.14 0.71 0.60 92 1006.3
20260506173103 47 20 2.0 6.0 0.12 0.65 0.54 92 1006.0
20260506171551 47 69 3.0 5.0 0.09 0.61 0.50 92 1005.8
20260506170044 47 55 2.0 10.0 0.10 0.60 0.49 92 1005.7
20260506164553 48 25 3.0 11.0 0.09 0.56 0.46 92 1005.8
20260506163042 49 28 4.0 11.0 0.09 0.53 0.42 93 1005.5
20260506161536 49 56 3.0 12.0 0.10 0.52 0.41 92 1005.9
20260506160034 50 59 1.0 4.0 0.09 0.49 0.38 93 1005.7
20260506154531 49 65 2.0 5.0 0.09 0.48 0.37 92 1005.8
20260506153031 50 26 2.0 6.0 0.06 0.43 0.32 92 1006.0
20260506151527 50 51 0.0 6.0 0.06 0.42 0.31 93 1006.1
20260506150026 50 36 2.0 5.0 0.06 0.40 0.28 93 1006.1
20260506144530 50 55 2.0 5.0 0.08 0.39 0.28 93 1006.4
20260506143032 50 49 1.0 4.0 0.08 0.37 0.26 93 1006.4
20260506141522 50 80 0.0 6.0 0.09 0.36 0.25 93 1006.5
20260506140023 50 59 0.0 3.0 0.09 0.34 0.23 93 1006.3
20260506134520 50 14 1.0 5.0 0.09 0.31 0.20 92 1006.8
20260506133016 50 38 2.0 8.0 0.09 0.28 0.18 93 1006.5
20260506131518 50 355 1.0 4.0 0.08 0.27 0.16 93 1006.8
20260506130016 50 49 2.0 5.0 0.06 0.25 0.14 92 1006.9
20260506124511 50 49 2.0 5.0 0.03 0.22 0.11 92 1007.3
20260506123010 51 38 1.0 7.0 0.02 0.20 0.09 92 1007.2
20260506121507 51 30 3.0 5.0 0.01 0.19 0.08 92 1007.1
20260506120006 51 40 2.0 4.0 0.01 0.19 0.08 93 1007.5
20260506114505 51 72 1.0 4.0 0.01 0.19 0.08 93 1007.2
20260506113007 51 66 1.0 3.0 0.00 0.18 0.07 93 1007.1
20260506111502 52 45 0.0 2.0 0.00 0.18 0.07 93 1007.0
20260506110002 52 11 2.0 6.0 0.00 0.18 0.07 93 1007.0